Location: Congrier
(47.8099°N, 1.1170°W)
Time: 02:16:52
(UTC+00:00)

CZ-6A DEB - Pass Details

Date: 27 February 2024
Orbit: 823 x 838 km, 98.8° (Epoch: 24 April)

Event Time Altitude Azimuth Distance (km) Brightness Sun altitude
Rises 18:50:59 0° 206° (SSW) 3,383 ? -11.8°
Reaches altitude 10° 18:53:58 10° 223° (SW) 2,454 ? -12.3°
Maximum altitude 18:57:55 20° 269° (W) 1,845 ? -13.0°
Drops below altitude 10° 19:01:53 10° 316° (NW) 2,466 ? -13.6°
Sets 19:04:55 0° 333° (NNW) 3,404 ? -14.1°
